Location: Gliwice County
(50.3038°N, 18.4992°E)
Time: 02:56:33
(UTC+00:00)

Daily predictions for brighter satellites

Satellite Brightness Start Highest point End
(mag) Time Altitude Azimuth Time Altitude Azimuth Time Altitude Azimuth
USA 234 4.3 01:08:03 10° ENE 01:12:02 40° ENE 01:12:02 40° ENE
IDEFIX/ARIANE 42P 4.4 01:35:44 10° NNE 01:38:05 26° NE 01:38:05 26° NE
NOSS 3-2 (C) 4.1 01:55:54 48° ESE 01:55:54 48° ESE 02:01:34 10° NE
CENTAUR R/B 2.9 02:03:00 56° ESE 02:03:00 56° ESE 02:09:53 10° NE
CZ-2C R/B 3.4 02:23:05 10° NNE 02:27:54 45° E 02:29:29 33° SE
ARIANE 5 R/B 4.1 02:23:10 10° N 02:25:19 25° N 02:25:19 25° N
ISS -0.9 02:36:08 17° ESE 02:36:08 17° ESE 02:37:21 10° E
Cosmos 1697 Rocket 2.8 02:34:59 52° N 02:36:22 74° ENE 02:42:02 10° SE
ADEOS II 4.1 02:34:11 10° N 02:35:25 16° NNW 02:35:25 16° NNW
Cosmos 2344 3.4 02:37:40 59° WSW 02:39:16 80° NW 02:47:38 10° NE
Lacrosse 4 Rocket 2.4 02:42:02 42° NE 02:42:02 42° NE 02:44:52 10° NE
COSMOS 2406 3.6 02:39:30 39° S 02:41:23 59° ESE 02:46:57 10° NE
USA 238 DEB 3.5 02:41:03 67° W 02:41:48 73° NW 02:48:48 10° NE
USA 238 3.5 02:41:08 67° W 02:41:54 74° NW 02:48:54 10° NE
NOSS 3-2 (A) 3.4 02:44:26 64° WNW 02:44:44 65° NW 02:51:31 10° NE
Lacrosse 5 rocket 2.6 02:50:06 33° ESE 02:50:06 33° ESE 02:53:03 10° ENE
ATLAS 3B R/B 3.7 02:45:39 12° S 02:51:16 40° ESE 02:57:24 10° NE
PAYLOAD A 4.0 02:48:42 10° NNE 02:53:49 83° ESE 02:55:43 41° S
Cosmos 967 Rocket 4.4 02:52:39 36° NW 02:55:29 88° NE 03:01:46 10° SE
USA 234 3.5 02:51:09 10° ENE 02:57:32 58° NNW 02:59:22 44° WNW
Cosmos 1980 Rocket 2.6 02:54:36 16° NNW 02:59:07 63° ENE 03:04:40 10° SE
ADEOS Rocket 2.6 02:56:35 10° S 03:02:02 66° WSW 03:07:41 10° NNW
Cosmos 1025 Rocket 4.5 03:05:19 26° NNW 03:05:19 26° NNW 03:07:26 10° N
ERS-2 3.3 03:02:30 10° SSE 03:04:42 35° SSE 03:04:42 35° SSE
Cosmos 2180 Rocket 4.4 03:00:09 10° NNW 03:06:19 60° W 03:12:22 10° S
Cosmos 2228 3.3 03:02:25 10° N 03:06:47 67° ENE 03:11:08 10° SSE
Nadezhda 4 Rocket 4.1 03:00:52 10° S 03:06:57 76° E 03:13:08 10° NNE
Geosat 3.9 03:03:21 10° SSE 03:08:23 85° WSW 03:10:57 30° NNW
ADEOS 4.4 03:04:33 10° NNE 03:09:40 51° E 03:14:45 10° S
Cosmos 1269 Rocket 3.9 03:09:19 57° WSW 03:10:11 67° WNW 03:15:30 10° NNE
Abrixas rocket 4.2 03:12:49 20° SE 03:12:49 20° SE 03:13:54 10° SE
Cosmos 2360 4.1 03:13:17 24° NW 03:16:49 74° WSW 03:22:28 10° SSE
Cosmos 1606 Rocket 3.6 03:12:42 10° N 03:17:13 80° E 03:21:42 10° SSE
Cosmos 1400 Rocket 3.4 03:15:25 10° N 03:19:20 55° ENE 03:23:10 10° SSE
IDEFIX/ARIANE 42P 3.8 03:15:49 10° N 03:18:52 25° NW 03:18:52 25° NW
Intercosmos 24 3.5 03:24:19 10° NNW 03:28:18 73° W 03:31:49 10° S
Cosmos 2278 3.6 03:24:14 12° NNW 03:29:29 82° WSW 03:35:08 10° SSE
COSMO-SKYMED 1 3.3 03:25:39 10° SSE 03:29:53 54° ENE 03:34:08 10° N
Cosmos 2322 Rocket 3.7 03:25:37 10° NNW 03:30:47 34° NE 03:35:53 10° ESE
MSX 4.4 03:26:16 10° N 03:31:22 34° WNW 03:32:03 33° WNW
Cosmos 1300 2.5 03:29:47 10° NNW 03:33:38 84° W 03:37:27 10° S
ALOS 2.4 03:29:00 10° NNE 03:33:42 77° ESE 03:38:21 10° S
Cosmos 220 Rocket 4.1 03:32:31 39° WNW 03:33:48 53° WSW 03:38:06 10° S
CZ-4B R/B 1.3 03:33:04 10° S 03:36:30 63° WSW 03:37:09 50° NW
Cosmos 1833 Rocket 2.6 03:33:51 19° SW 03:37:58 74° WNW 03:43:39 10° NNE
Cosmos 1992 Rocket 4.0 03:34:01 12° NNW 03:38:46 59° WSW 03:43:53 10° S
Cosmos 1674 4.2 03:42:36 21° NNW 03:42:36 21° NNW 03:44:23 10° N
SL-14 R/B 3.2 03:37:04 10° SSW 03:41:03 79° W 03:45:07 10° N
Cosmos 1626 2.0 03:39:55 27° SSW 03:41:46 61° WNW 03:45:26 10° N
METEOR-M 4.3 03:38:34 10° NNE 03:43:57 77° ESE 03:49:17 10° S
Cosmos 1689 Rocket 2.5 03:41:25 10° SSE 03:44:19 62° ENE 03:47:13 10° N
deb Chang Zheng 4 3.5 03:40:56 10° NNE 03:45:13 84° ESE 03:49:30 10° SSW
NOSS 3-2 (C) 3.8 03:43:22 28° W 03:46:18 49° NNW 03:52:58 10° NE
deb Kosmos-1763 3.9 03:46:48 29° SW 03:48:29 66° WNW 03:52:04 10° NNE
Cosmos 1315 Rocket 4.0 03:47:02 10° N 03:51:01 45° ENE 03:54:59 10° SSE
Cosmos 1553 Rocket 4.5 03:45:18 10° N 03:51:24 63° ENE 03:57:24 10° SSE
Cosmos 2058 Rocket 3.1 03:47:03 10° N 03:51:36 89° E 03:56:04 10° S
SJ-12 4.5 03:47:34 10° NNE 03:51:41 60° E 03:55:43 10° S
SL-19 R/B 3.8 03:50:18 10° NNE 03:53:07 66° ESE 03:55:58 10° S
Cosmos 2369 4.1 03:49:30 18° NW 03:53:10 38° WSW 03:58:19 10° S
Okean 1-7 Rocket 4.1 03:49:21 10° S 03:53:51 65° E 03:58:20 10° NNE
CENTAUR R/B 3.0 03:50:12 25° W 03:53:52 48° NNW 04:01:08 10° NE
Cosmos 1484 Rocket 2.7 03:52:21 10° N 03:56:12 61° WNW 03:59:57 10° SSW
Meteor 1-24 Rocket 3.7 03:51:36 10° SSW 03:57:16 78° WNW 04:03:11 10° N
Cosmos 2082 Rocket 2.1 03:55:13 10° SSW 04:00:50 82° WNW 04:06:31 10° NNE
Cosmos 1461 3.1 03:57:50 16° SW 04:01:30 72° NW 04:06:15 10° NE
Cosmos 1892 Rocket 3.4 03:58:18 10° SSW 04:02:39 77° W 04:07:04 10° N
Cosmos 2026 Rocket 4.0 03:57:38 10° S 04:04:02 87° W 04:10:28 10° N
Meteor PRIRODA 4.1 04:02:14 10° NNE 04:05:52 62° E 04:09:29 10° S
CZ-2C R/B 3.2 04:01:39 10° N 04:05:57 29° WNW 04:08:51 17° WSW
ARIANE 5 R/B 4.5 04:04:43 10° NNW 04:05:39 11° NW 04:05:39 11° NW
SL-16 R/B 2.6 04:01:32 10° NNW 04:07:12 65° ENE 04:12:51 10° SE
Cosmos 2195 Rocket 4.4 04:02:51 10° SSW 04:09:02 71° WNW 04:15:13 10° N
USA 290 2.3 04:06:42 13° SW 04:09:25 55° WNW 04:12:38 10° NNE
CREW DRAGON DEMO-1 DEB 3.0 04:08:42 29° W 04:09:57 54° SSW 04:12:54 10° SE
ISS -3.7 04:09:06 22° WSW 04:11:06 80° SSE 04:14:29 10° ENE
Cosmos 2251 Rocket 3.5 04:06:39 10° SSW 04:11:59 68° WNW 04:17:20 10° NNE
Cosmos 2333 Rocket 4.2 04:12:18 10° NNW 04:16:47 23° NE 04:21:15 10° E
SKYMED 2 3.7 04:13:44 10° S 04:17:58 53° W 04:22:15 10° NNW
Meteor 2-1 Rocket 4.4 04:12:48 10° N 04:18:30 83° ENE 04:24:17 10° SSE
Cosmos 1697 Rocket 3.8 04:16:50 15° WNW 04:19:46 21° W 04:23:55 10° SSW
Lacrosse 4 Rocket 2.7 04:18:22 17° WNW 04:19:54 21° NW 04:23:06 10° NNE
PSLV R/B 4.1 04:16:33 10° S 04:20:40 55° W 04:24:51 10° NNW
Meteor 1-31 Rocket 3.1 04:17:07 10° N 04:20:54 45° WNW 04:24:40 10° SW
Cosmos 1455 2.5 04:18:00 10° N 04:21:53 72° E 04:25:44 10° SSE
CZ-4B R/B 2.8 04:21:40 10° N 04:25:40 71° WNW 04:29:51 10° SSW
COSMOS 2406 4.0 04:21:37 13° WSW 04:26:03 32° NW 04:31:06 10° NNE
Cosmos 1626 Rocket 4.0 04:22:16 10° S 04:26:43 70° E 04:31:11 10° NNE
[s.n.46727] 2.6 04:25:26 14° WSW 04:27:41 74° SSE 04:30:26 10° ENE
[s.n.46723] 2.7 04:25:27 14° WSW 04:27:46 74° SSE 04:30:34 10° ENE
[s.n.46707] 2.6 04:25:36 14° WSW 04:27:53 74° SSE 04:30:37 10° ENE
[s.n.46708] 2.6 04:25:41 14° WSW 04:27:58 74° SSE 04:30:43 10° ENE
[s.n.46719] 2.6 04:25:47 14° WSW 04:28:03 74° SSE 04:30:48 10° ENE
FENGYUN 3A 4.0 04:22:57 10° N 04:28:05 43° WNW 04:33:11 10° SW
[s.n.46724] 2.6 04:25:52 14° WSW 04:28:09 74° SSE 04:30:54 10° ENE
[s.n.46687] 2.6 04:25:57 14° WSW 04:28:13 74° SSE 04:30:59 10° ENE
[s.n.46696] 2.6 04:26:02 14° WSW 04:28:20 75° SSE 04:31:05 10° ENE
[s.n.46720] 2.6 04:26:07 14° WSW 04:28:25 75° SSE 04:31:10 10° ENE
[s.n.46676] 2.6 04:26:12 14° WSW 04:28:30 75° SSE 04:31:15 10° ENE
[s.n.46721] 2.6 04:26:18 14° WSW 04:28:36 75° SSE 04:31:21 10° ENE
Lacrosse 5 rocket 1.4 04:25:46 15° W 04:28:37 51° NNW 04:32:25 10° NE
[s.n.46728] 2.6 04:26:23 14° WSW 04:28:41 75° SSE 04:31:26 10° ENE
[s.n.46690] 2.6 04:26:28 14° WSW 04:28:46 75° SSE 04:31:32 10° ENE
[s.n.46694] 2.6 04:26:32 14° WSW 04:28:50 75° SSE 04:31:36 10° ENE
[s.n.46702] 2.6 04:26:39 13° WSW 04:28:58 75° SSE 04:31:43 10° ENE
[s.n.46679] 2.6 04:26:42 13° WSW 04:29:01 75° SSE 04:31:47 10° ENE
Meteor 2-5 Rocket 4.3 04:23:45 10° SW 04:29:03 38° WNW 04:34:30 10° N
[s.n.46704] 2.6 04:26:44 13° WSW 04:29:06 76° SSE 04:31:54 10° ENE
[s.n.46712] 2.6 04:26:50 13° WSW 04:29:10 76° SSE 04:31:55 10° ENE
[s.n.46711] 2.6 04:26:59 13° WSW 04:29:18 76° SSE 04:32:04 10° ENE
[s.n.46684] 2.6 04:27:01 13° WSW 04:29:21 76° SSE 04:32:06 10° ENE
[s.n.46706] 2.6 04:27:09 13° WSW 04:29:29 76° SSE 04:32:14 10° ENE
[s.n.46678] 2.7 04:27:07 13° WSW 04:29:31 76° SSE 04:32:19 10° ENE
Okean O Rocket 4.1 04:25:52 10° NE 04:29:35 27° E 04:33:17 10° SSE
[s.n.46677] 2.6 04:27:17 13° WSW 04:29:37 76° SSE 04:32:23 10° ENE
[s.n.46671] 2.6 04:27:22 13° WSW 04:29:43 76° SSE 04:32:28 10° ENE
Cosmos 1602 Rocket 4.4 04:25:23 10° S 04:29:44 57° E 04:34:08 10° NNE
[s.n.46675] 2.6 04:27:27 13° WSW 04:29:48 76° SSE 04:32:34 10° ENE
[s.n.46674] 2.6 04:27:33 13° WSW 04:29:53 76° SSE 04:32:39 10° ENE
[s.n.46698] 2.6 04:27:38 13° WSW 04:30:00 76° SSE 04:32:45 10° ENE
[s.n.46699] 2.6 04:27:39 13° WSW 04:30:03 77° SSE 04:32:51 10° ENE
[s.n.46715] 2.6 04:27:48 13° WSW 04:30:10 77° SSE 04:32:56 10° ENE
[s.n.46714] 2.6 04:27:53 13° WSW 04:30:15 77° SSE 04:33:01 10° ENE
[s.n.46726] 2.6 04:27:59 13° WSW 04:30:21 77° SSE 04:33:06 10° ENE
[s.n.46703] 2.6 04:28:04 13° WSW 04:30:26 77° SSE 04:33:11 10° ENE
[s.n.46713] 2.6 04:28:09 13° WSW 04:30:32 77° SSE 04:33:18 10° ENE
[s.n.46717] 2.6 04:28:14 13° WSW 04:30:37 77° SSE 04:33:23 10° ENE
[s.n.46691] 2.6 04:28:16 13° WSW 04:30:42 78° SSE 04:33:30 10° ENE
[s.n.46693] 2.6 04:28:25 13° WSW 04:30:48 77° SSE 04:33:34 10° ENE
[s.n.46672] 2.6 04:28:30 13° WSW 04:30:53 78° SSE 04:33:39 10° ENE
[s.n.46701] 2.6 04:28:35 13° WSW 04:30:59 78° SSE 04:33:45 10° ENE
[s.n.46685] 2.6 04:28:41 13° WSW 04:31:04 78° SSE 04:33:50 10° ENE
[s.n.46709] 2.6 04:28:46 13° WSW 04:31:10 78° SSE 04:33:56 10° ENE
[s.n.46683] 2.6 04:28:50 13° WSW 04:31:14 78° SSE 04:34:01 10° ENE
[s.n.46695] 2.6 04:28:55 13° WSW 04:31:20 78° SSE 04:34:06 10° ENE
[s.n.46688] 2.6 04:29:02 13° WSW 04:31:26 78° SSE 04:34:12 10° ENE
[s.n.46729] 2.6 04:29:06 13° WSW 04:31:31 78° SSE 04:34:17 10° ENE
[s.n.46697] 2.6 04:29:09 13° WSW 04:31:34 78° SSE 04:34:20 10° ENE
Cosmos 2360 Rocket 3.1 04:26:07 10° NNW 04:31:36 48° NE 04:37:01 10° SE
[s.n.46725] 2.6 04:29:14 13° WSW 04:31:39 78° SSE 04:34:24 10° ENE
[s.n.46682] 2.6 04:29:19 13° WSW 04:31:44 79° SSE 04:34:30 10° ENE
[s.n.46680] 2.6 04:29:25 13° WSW 04:31:51 79° SSE 04:34:37 10° ENE
[s.n.46718] 2.6 04:29:30 13° WSW 04:31:56 79° SSE 04:34:42 10° ENE
[s.n.46710] 2.6 04:29:35 13° WSW 04:32:02 79° SSE 04:34:47 10° ENE
[s.n.46673] 2.6 04:29:46 12° WSW 04:32:12 79° SSE 04:34:58 10° ENE
[s.n.46700] 2.6 04:29:51 12° WSW 04:32:18 79° SSE 04:35:04 10° ENE
[s.n.46705] 2.6 04:29:56 12° WSW 04:32:23 79° SSE 04:35:09 10° ENE
[s.n.46692] 2.6 04:30:02 12° WSW 04:32:29 79° SSE 04:35:16 10° ENE
[s.n.46686] 2.6 04:30:07 12° WSW 04:32:35 80° SSE 04:35:21 10° ENE
[s.n.46716] 2.6 04:30:12 12° WSW 04:32:40 80° SSE 04:35:26 10° ENE
[s.n.46722] 2.6 04:30:17 12° WSW 04:32:45 80° SSE 04:35:31 10° ENE
[s.n.46689] 2.6 04:30:23 12° WSW 04:32:51 80° SSE 04:35:37 10° ENE
[s.n.46681] 2.6 04:30:28 12° WSW 04:32:56 80° SSE 04:35:43 10° ENE
DNEPR-1 R/B 3.9 04:28:28 10° NW 04:33:52 79° NE 04:38:21 10° SE
Cosmos 1812 Rocket 3.8 04:30:42 10° N 04:35:04 75° E 04:39:23 10° SSE
PSLV R/B 4.2 04:33:26 10° NNE 04:37:34 73° ESE 04:41:40 10° S
USA 234 3.8 04:33:46 10° ENE 04:40:03 51° N 04:46:19 10° WNW
ATLAS 3B R/B 2.7 04:35:16 10° WSW 04:41:45 59° NW 04:48:26 10° NE
Cosmos 1980 Rocket 3.2 04:38:11 10° NW 04:42:41 25° WSW 04:47:11 10° SSW
Cosmos 2098 Rocket 3.5 04:37:01 10° S 04:42:56 87° W 04:47:35 10° N
Meteor 1-21 Rocket 4.5 04:39:16 10° S 04:45:05 84° E 04:51:02 10° NNE
Abrixas rocket 4.3 04:44:34 10° WSW 04:45:50 12° SSW 04:47:05 10° S
ATLAS CENTAUR R/B 2.7 04:43:27 10° SSW 04:47:06 39° ESE 04:50:37 10° NE
Envisat 3.6 04:42:17 10° NNE 04:47:22 64° ESE 04:52:24 10° S
CZ-2C R/B 3.7 04:43:00 10° SE 04:48:26 52° ENE 04:53:53 10° N
ADEOS 4.4 04:44:31 10° N 04:48:57 29° WNW 04:53:23 10° WSW
Cosmos 407 Rocket 3.5 04:48:58 10° SSW 04:54:06 82° WNW 04:59:20 10° NNE
Meteor 2-19 Rocket 4.4 04:48:20 10° SSW 04:54:23 67° WNW 05:00:27 10° N
Cosmos 2344 4.5 04:48:07 10° WNW 04:55:09 37° N 05:03:41 10° NE
Cosmos 1400 Rocket 4.4 04:53:07 10° NW 04:55:20 15° W 04:57:32 10° WSW
CZ-3 R/B 4.3 04:44:56 10° WSW 04:55:44 19° SSW 05:01:06 10° SSE
Cosmos 1140 Rocket 3.6 04:51:41 10° SSW 04:56:49 87° ESE 05:01:59 10° NNE
Cosmos 921 Rocket 4.3 04:52:28 10° N 04:56:49 44° ENE 05:01:08 10° SE
Cosmos 2219 Rocket 3.7 04:52:33 10° NNW 04:57:41 34° NE 05:02:45 10° ESE
